ICT,Max TemperatureF,Mean TemperatureF,Min TemperatureF,Max Dew PointF,MeanDew PointF,Min DewpointF,Max Humidity, Mean Humidity, Min Humidity, Max Sea Level PressureIn, Mean Sea Level PressureIn, Min Sea Level PressureIn, Max VisibilityMiles, Mean VisibilityMiles, Min VisibilityMiles, Max Wind SpeedMPH, Mean Wind SpeedMPH, Max Gust SpeedMPH,PrecipitationIn, CloudCover, Events, WindDirDegrees
2013-1-1,80,66,55,59,55,54,94,61,36,30.04,29.98,29.86,6,4,2,5,1,,0.00,2,,32
2013-1-2,87,72,59,63,59,57,88,61,32,29.98,29.93,29.83,6,4,1,5,1,,0.00,1,,240
2013-1-3,89,74,62,64,61,58,89,59,30,30.01,29.96,29.92,4,4,3,6,2,,0.00,1,,269
2013-1-4,86,72,62,63,58,55,83,51,31,30.01,29.92,29.80,6,6,4,9,3,,0.00,1,,186
2013-1-5,87,72,59,61,59,57,94,62,34,29.95,29.88,29.77,6,4,0,6,1,,0.00,1,,155
2013-1-6,86,72,60,61,60,59,94,66,33,30.01,29.93,29.88,5,4,2,6,1,,0.00,3,,183
2013-1-7,86,70,57,63,58,55,94,62,33,29.98,29.91,29.80,7,5,2,6,1,,0.00,1,,290
2013-1-8,89,75,61,63,61,59,88,61,38,29.95,29.87,29.74,6,5,2,4,1,,0.00,2,,10
2013-1-9,89,76,62,65,63,61,90,57,37,29.94,29.85,29.74,6,4,3,8,3,,0.00,1,,185
2013-1-10,83,73,64,65,57,54,76,57,36,29.98,29.90,29.80,7,5,3,9,4,,0.00,4,,118
2013-1-11,83,74,65,60,57,52,73,54,35,31.33,30.04,29.83,6,4,3,9,4,,0.00,4,,114
2013-1-12,80,72,64,59,58,57,83,60,45,30.01,29.94,29.86,6,4,2,6,3,,0.00,3,,203
2013-1-13,85,74,61,62,58,57,85,53,35,29.96,29.89,29.77,6,5,2,8,4,,0.00,1,,100
2013-1-14,87,74,61,64,62,60,88,61,36,29.95,29.88,29.77,6,4,1,9,2,,0.00,1,,340
2013-1-15,87,74,62,64,62,60,88,59,42,30.01,29.92,29.83,6,4,1,7,2,,0.00,1,,349
2013-1-16,87,75,66,65,63,63,88,66,48,30.04,29.97,29.91,4,2,1,5,1,,0.00,4,,3
2013-1-17,86,76,66,64,58,51,88,53,21,30.09,30.01,29.92,4,3,1,8,3,,0.00,2,,91
2013-1-18,83,74,63,60,56,54,78,50,29,30.15,30.08,29.95,7,6,3,9,4,,0.00,1,,127
2013-1-19,84,72,59,59,56,54,88,56,29,30.09,30.02,29.89,7,5,3,9,3,,0.00,2,,193
2013-1-20,88,72,56,59,54,48,88,53,25,30.06,29.99,29.86,5,4,1,7,3,,0.00,1,,306
2013-1-21,89,72,56,60,56,54,88,53,24,30.06,29.98,29.86,6,4,1,5,2,,0.00,,,7
2013-1-22,91,74,59,63,57,54,79,50,22,30.04,29.97,29.88,4,3,1,4,2,,0.00,,,310
2013-1-23,90,76,63,66,61,59,83,57,32,29.98,29.93,29.84,4,3,1,8,2,,0.00,2,,120
2013-1-24,91,79,67,68,64,63,88,59,35,29.98,29.91,29.80,3,3,1,4,1,,0.00,4,,35
2013-1-25,86,76,68,67,65,63,88,67,42,29.95,29.90,29.80,4,2,1,8,2,,0.00,4,,207
2013-1-26,89,77,66,66,65,63,88,65,38,29.93,29.88,29.83,4,3,1,6,2,,0.00,2,,183
2013-1-27,81,74,69,68,67,66,83,74,58,30.01,29.95,29.92,3,2,1,6,3,,0.00,5,,20
2013-1-28,76,71,67,66,64,63,87,72,60,30.06,30.00,29.95,7,5,1,7,4,,0.00,7,Rain,114
2013-1-29,85,76,68,66,65,64,88,68,48,30.04,29.98,29.89,6,4,2,5,1,,0.00,4,,145
2013-1-30,88,74,65,66,64,63,94,67,40,30.02,29.98,29.91,6,4,1,8,2,,0.00,2,,190
2013-1-31,73,71,68,67,66,64,94,85,67,30.06,30.02,29.92,4,3,1,6,3,,0.00,8,Rain,316